Time,TemperatureF,DewpointF,PressureIn,WindDirection,WindDirectionDegrees,WindSpeedMPH,WindSpeedGustMPH,Humidity,HourlyPrecipIn,Conditions,Clouds,dailyrainin,SoftwareType,DateUTC
2013-01-05 00:00:00,33.5,26.1,29.70,West,261,2.0,3.0,74,0.00,,OVC055,0.00,VWS V14.00,2013-01-05 05:00:00,
2013-01-05 00:03:00,33.5,26.1,29.70,West,269,0.0,6.0,74,0.00,,OVC050,0.00,VWS V14.00,2013-01-05 05:03:00,
2013-01-05 00:08:00,33.4,26.0,29.70,West,279,5.0,6.0,74,0.00,,OVC050,0.00,VWS V14.00,2013-01-05 05:08:00,
2013-01-05 00:13:00,33.3,26.2,29.70,West,275,6.0,6.0,75,0.00,,OVC050,0.00,VWS V14.00,2013-01-05 05:13:00,
2013-01-05 00:18:00,33.2,26.1,29.70,WNW,282,0.0,6.0,75,0.00,,OVC050,0.00,VWS V14.00,2013-01-05 05:18:00,
2013-01-05 00:23:00,33.2,26.1,29.70,SW,230,1.0,6.0,75,0.00,,OVC050,0.00,VWS V14.00,2013-01-05 05:23:00,
2013-01-05 00:28:00,33.2,26.1,29.70,West,269,2.0,2.0,75,0.00,,OVC050,0.00,VWS V14.00,2013-01-05 05:28:00,
2013-01-05 00:33:00,33.1,26.4,29.70,WNW,290,3.0,6.0,76,0.00,,OVC050,0.00,VWS V14.00,2013-01-05 05:33:00,
2013-01-05 00:38:00,33.2,26.5,29.70,WNW,290,6.0,6.0,76,0.00,,OVC050,0.00,VWS V14.00,2013-01-05 05:38:00,
2013-01-05 00:43:00,33.2,26.5,29.69,WNW,282,5.0,8.0,76,0.00,,OVC050,0.00,VWS V14.00,2013-01-05 05:43:00,
2013-01-05 00:48:00,33.2,26.5,29.69,South,182,1.0,11.0,76,0.00,,OVC050,0.00,VWS V14.00,2013-01-05 05:48:00,
2013-01-05 00:53:00,33.2,26.5,29.69,West,273,0.0,11.0,76,0.00,,OVC050,0.00,VWS V14.00,2013-01-05 05:53:00,
2013-01-05 00:58:00,33.2,26.5,29.69,SW,217,3.0,4.0,76,0.00,,OVC050,0.00,VWS V14.00,2013-01-05 05:58:00,
2013-01-05 01:03:00,33.1,26.4,29.69,WSW,240,2.0,9.0,76,0.00,,OVC055,0.00,VWS V14.00,2013-01-05 06:03:00,
2013-01-05 01:08:00,33.0,26.3,29.69,WSW,252,2.0,9.0,76,0.00,,OVC055,0.00,VWS V14.00,2013-01-05 06:08:00,
2013-01-05 01:13:00,32.9,26.2,29.69,SW,214,1.0,9.0,76,0.00,,OVC055,0.00,VWS V14.00,2013-01-05 06:13:00,
2013-01-05 01:18:00,32.9,26.2,29.70,WSW,250,0.0,9.0,76,0.00,,OVC055,0.00,VWS V14.00,2013-01-05 06:18:00,
2013-01-05 01:23:00,32.9,26.5,29.70,NW,304,1.0,9.0,77,0.00,,OVC055,0.00,VWS V14.00,2013-01-05 06:23:00,
2013-01-05 01:28:00,32.9,26.5,29.70,South,184,2.0,2.0,77,0.00,,OVC055,0.00,VWS V14.00,2013-01-05 06:28:00,
2013-01-05 01:33:00,32.9,26.5,29.70,West,261,6.0,7.0,77,0.00,,OVC055,0.00,VWS V14.00,2013-01-05 06:33:00,
2013-01-05 01:38:00,33.0,26.6,29.70,SW,236,3.0,7.0,77,0.00,,OVC055,0.00,VWS V14.00,2013-01-05 06:38:00,
2013-01-05 01:43:00,33.0,26.6,29.70,WSW,243,3.0,7.0,77,0.00,,OVC055,0.00,VWS V14.00,2013-01-05 06:43:00,
2013-01-05 01:48:00,33.2,26.8,29.70,WNW,296,3.0,10.0,77,0.00,,OVC055,0.00,VWS V14.00,2013-01-05 06:48:00,
2013-01-05 01:53:00,33.3,26.9,29.70,WNW,288,2.0,10.0,77,0.00,,OVC055,0.00,VWS V14.00,2013-01-05 06:53:00,
2013-01-05 01:58:00,33.4,27.0,29.71,SW,231,1.0,2.0,77,0.00,,OVC055,0.00,VWS V14.00,2013-01-05 06:58:00,
2013-01-05 02:03:00,33.5,27.1,29.71,WSW,248,2.0,10.0,77,0.00,,OVC055,0.00,VWS V14.00,2013-01-05 07:03:00,
2013-01-05 02:08:00,33.6,26.9,29.71,SW,215,5.0,10.0,76,0.00,,OVC055,0.00,VWS V14.00,2013-01-05 07:08:00,
2013-01-05 02:13:00,33.7,27.0,29.71,West,281,2.0,10.0,76,0.00,,OVC055,0.00,VWS V14.00,2013-01-05 07:13:00,
2013-01-05 02:18:00,33.8,27.0,29.71,WSW,255,3.0,10.0,76,0.00,,OVC055,0.00,VWS V14.00,2013-01-05 07:18:00,
2013-01-05 02:23:00,33.9,27.1,29.71,WSW,247,6.0,11.0,76,0.00,,OVC055,0.00,VWS V14.00,2013-01-05 07:23:00,
2013-01-05 02:28:00,33.9,26.8,29.71,WSW,245,6.0,8.0,75,0.00,,OVC055,0.00,VWS V14.00,2013-01-05 07:28:00,
2013-01-05 02:33:00,34.0,26.9,29.71,WNW,294,5.0,10.0,75,0.00,,OVC055,0.00,VWS V14.00,2013-01-05 07:33:00,
2013-01-05 02:38:00,34.0,26.9,29.71,SW,217,4.0,10.0,75,0.00,,OVC055,0.00,VWS V14.00,2013-01-05 07:38:00,
2013-01-05 02:43:00,33.9,26.8,29.71,West,273,5.0,10.0,75,0.00,,OVC055,0.00,VWS V14.00,2013-01-05 07:43:00,
2013-01-05 02:48:00,33.9,27.1,29.72,SSW,209,0.0,10.0,76,0.00,,OVC055,0.00,VWS V14.00,2013-01-05 07:48:00,
2013-01-05 02:53:00,33.8,27.0,29.72,West,261,3.0,10.0,76,0.00,,OVC055,0.00,VWS V14.00,2013-01-05 07:53:00,
2013-01-05 02:58:00,33.8,27.0,29.72,SSW,210,1.0,3.0,76,0.00,,OVC055,0.00,VWS V14.00,2013-01-05 07:58:00,
2013-01-05 03:03:00,33.8,27.0,29.72,SSW,211,5.0,9.0,76,0.00,,,0.00,VWS V14.00,2013-01-05 08:03:00,
2013-01-05 03:08:00,33.8,27.0,29.72,WSW,252,3.0,10.0,76,0.00,,,0.00,VWS V14.00,2013-01-05 08:08:00,
2013-01-05 03:13:00,33.9,27.1,29.72,West,272,4.0,10.0,76,0.00,,,0.00,VWS V14.00,2013-01-05 08:13:00,
2013-01-05 03:18:00,33.9,27.1,29.72,SW,214,1.0,10.0,76,0.00,,,0.00,VWS V14.00,2013-01-05 08:18:00,
2013-01-05 03:23:00,33.9,26.8,29.72,WSW,246,2.0,10.0,75,0.00,,,0.00,VWS V14.00,2013-01-05 08:23:00,
2013-01-05 03:28:00,33.9,26.8,29.72,West,279,0.0,1.0,75,0.00,,,0.00,VWS V14.00,2013-01-05 08:28:00,
2013-01-05 03:33:00,33.7,26.6,29.72,West,263,0.0,8.0,75,0.00,,,0.00,VWS V14.00,2013-01-05 08:33:00,
2013-01-05 03:38:00,33.6,26.5,29.73,NNW,342,4.0,8.0,75,0.00,,,0.00,VWS V14.00,2013-01-05 08:38:00,
2013-01-05 03:43:00,33.4,26.3,29.73,WSW,250,6.0,8.0,75,0.00,,,0.00,VWS V14.00,2013-01-05 08:43:00,
2013-01-05 03:48:00,33.3,26.6,29.73,West,263,1.0,8.0,76,0.00,,,0.00,VWS V14.00,2013-01-05 08:48:00,
2013-01-05 03:53:00,33.1,26.4,29.73,WNW,292,3.0,8.0,76,0.00,,,0.00,VWS V14.00,2013-01-05 08:53:00,
2013-01-05 03:58:00,33.0,26.3,29.73,WSW,257,1.0,2.0,76,0.00,,,0.00,VWS V14.00,2013-01-05 08:58:00,
2013-01-05 04:03:00,32.9,26.5,29.73,South,186,2.0,5.0,77,0.00,,,0.00,VWS V14.00,2013-01-05 09:03:00,
2013-01-05 04:08:00,32.7,26.3,29.73,SSE,150,0.0,5.0,77,0.00,,,0.00,VWS V14.00,2013-01-05 09:08:00,
2013-01-05 04:13:00,32.7,26.3,29.74,West,270,0.0,8.0,77,0.00,,,0.00,VWS V14.00,2013-01-05 09:13:00,
2013-01-05 04:18:00,32.6,26.2,29.74,West,264,1.0,9.0,77,0.00,,,0.00,VWS V14.00,2013-01-05 09:18:00,
2013-01-05 04:23:00,32.6,26.5,29.74,West,272,4.0,9.0,78,0.00,,,0.00,VWS V14.00,2013-01-05 09:23:00,
2013-01-05 04:28:00,32.6,26.5,29.75,WSW,242,2.0,2.0,78,0.00,,,0.00,VWS V14.00,2013-01-05 09:28:00,
2013-01-05 04:33:00,32.6,26.5,29.75,SSW,207,3.0,7.0,78,0.00,,,0.00,VWS V14.00,2013-01-05 09:33:00,
2013-01-05 04:38:00,32.6,26.5,29.75,WNW,299,2.0,7.0,78,0.00,,,0.00,VWS V14.00,2013-01-05 09:38:00,
2013-01-05 04:43:00,32.6,26.5,29.75,West,271,6.0,8.0,78,0.00,,,0.00,VWS V14.00,2013-01-05 09:43:00,
2013-01-05 04:48:00,32.7,26.3,29.75,West,269,0.0,8.0,77,0.00,,,0.00,VWS V14.00,2013-01-05 09:48:00,
2013-01-05 04:53:00,32.8,26.4,29.75,SW,227,5.0,9.0,77,0.00,,,0.00,VWS V14.00,2013-01-05 09:53:00,
2013-01-05 04:58:00,32.9,26.5,29.75,WSW,248,1.0,1.0,77,0.00,,,0.00,VWS V14.00,2013-01-05 09:58:00,
2013-01-05 05:03:00,32.9,26.2,29.76,WNW,287,3.0,6.0,76,0.00,,SCT050,0.00,VWS V14.00,2013-01-05 10:03:00,
2013-01-05 05:08:00,33.0,26.3,29.76,SW,232,2.0,8.0,76,0.00,,SCT050,0.00,VWS V14.00,2013-01-05 10:08:00,
2013-01-05 05:13:00,32.9,26.2,29.76,WSW,249,1.0,8.0,76,0.00,,SCT050,0.00,VWS V14.00,2013-01-05 10:13:00,
2013-01-05 05:18:00,32.9,26.2,29.77,NW,304,2.0,8.0,76,0.00,,SCT050,0.00,VWS V14.00,2013-01-05 10:18:00,
2013-01-05 05:23:00,32.7,26.0,29.77,SW,229,0.0,8.0,76,0.00,,SCT050,0.00,VWS V14.00,2013-01-05 10:23:00,
2013-01-05 05:28:00,32.7,26.0,29.77,WSW,250,1.0,2.0,76,0.00,,SCT050,0.00,VWS V14.00,2013-01-05 10:28:00,
2013-01-05 05:33:00,32.7,26.0,29.78,West,265,3.0,5.0,76,0.00,,SCT050,0.00,VWS V14.00,2013-01-05 10:33:00,
2013-01-05 05:38:00,32.6,25.9,29.78,West,280,2.0,6.0,76,0.00,,SCT050,0.00,VWS V14.00,2013-01-05 10:38:00,
2013-01-05 05:42:00,32.5,25.8,29.78,SW,227,1.0,7.0,76,0.00,,SCT050,0.00,VWS V14.00,2013-01-05 10:42:00,
2013-01-05 05:47:00,32.4,26.0,29.79,West,275,2.0,7.0,77,0.00,,SCT050,0.00,VWS V14.00,2013-01-05 10:47:00,
2013-01-05 05:52:00,32.3,25.9,29.79,West,264,0.0,7.0,77,0.00,,SCT050,0.00,VWS V14.00,2013-01-05 10:52:00,
2013-01-05 05:57:00,32.2,25.8,29.80,West,280,5.0,6.0,77,0.00,,SCT050,0.00,VWS V14.00,2013-01-05 10:57:00,
2013-01-05 06:02:00,32.1,25.7,29.80,WSW,242,1.0,6.0,77,0.00,,FEW050,0.00,VWS V14.00,2013-01-05 11:02:00,
2013-01-05 06:11:00,32.1,25.7,29.80,WSW,242,0.0,6.0,77,0.00,,FEW050,0.00,VWS V14.00,2013-01-05 11:11:00,
2013-01-05 06:16:00,31.9,25.8,29.81,SSW,210,2.0,6.0,78,0.00,,FEW050,0.00,VWS V14.00,2013-01-05 11:16:00,
2013-01-05 06:21:00,31.7,25.6,29.81,SSW,205,7.0,7.0,78,0.00,,FEW050,0.00,VWS V14.00,2013-01-05 11:21:00,
2013-01-05 06:26:00,31.6,25.5,29.81,West,268,2.0,7.0,78,0.00,,FEW050,0.00,VWS V14.00,2013-01-05 11:26:00,
2013-01-05 06:31:00,31.6,25.5,29.81,West,264,0.0,5.0,78,0.00,,FEW050,0.00,VWS V14.00,2013-01-05 11:31:00,
2013-01-05 06:36:00,31.6,25.5,29.81,NW,306,1.0,5.0,78,0.00,,FEW050,0.00,VWS V14.00,2013-01-05 11:36:00,
2013-01-05 06:41:00,31.6,25.5,29.82,SW,227,0.0,5.0,78,0.00,,FEW050,0.00,VWS V14.00,2013-01-05 11:41:00,
2013-01-05 06:46:00,31.6,25.5,29.82,SW,227,3.0,5.0,78,0.00,,FEW050,0.00,VWS V14.00,2013-01-05 11:46:00,
2013-01-05 06:51:00,31.6,25.5,29.83,South,184,3.0,5.0,78,0.00,,FEW050,0.00,VWS V14.00,2013-01-05 11:51:00,
2013-01-05 06:56:00,31.8,25.4,29.83,West,278,2.0,6.0,77,0.00,,FEW050,0.00,VWS V14.00,2013-01-05 11:56:00,
2013-01-05 07:01:00,32.0,27.4,29.84,WNW,292,2.0,4.0,83,0.00,,,0.00,VWS V14.00,2013-01-05 12:01:00,
2013-01-05 07:06:00,32.2,25.8,29.84,NW,315,0.0,4.0,77,0.00,,,0.00,VWS V14.00,2013-01-05 12:06:00,
2013-01-05 07:11:00,32.3,25.9,29.85,NW,315,0.0,4.0,77,0.00,,,0.00,VWS V14.00,2013-01-05 12:11:00,
2013-01-05 07:16:00,32.3,25.9,29.85,NW,314,0.0,4.0,77,0.00,,,0.00,VWS V14.00,2013-01-05 12:16:00,
2013-01-05 07:21:00,32.2,26.1,29.85,NW,314,0.0,4.0,78,0.00,,,0.00,VWS V14.00,2013-01-05 12:21:00,
2013-01-05 07:26:00,32.0,26.2,29.86,NW,314,0.0,4.0,79,0.00,,,0.00,VWS V14.00,2013-01-05 12:26:00,
2013-01-05 07:31:00,31.7,26.2,29.86,NW,314,0.0,1.0,80,0.00,,,0.00,VWS V14.00,2013-01-05 12:31:00,
2013-01-05 07:36:00,31.4,26.0,29.86,NW,314,0.0,3.0,80,0.00,,,0.00,VWS V14.00,2013-01-05 12:36:00,
2013-01-05 07:41:00,31.2,25.8,29.87,NNW,340,2.0,4.0,80,0.00,,,0.00,VWS V14.00,2013-01-05 12:41:00,
2013-01-05 07:46:00,31.0,25.6,29.88,West,263,2.0,4.0,80,0.00,,,0.00,VWS V14.00,2013-01-05 12:46:00,
2013-01-05 07:51:00,31.2,25.5,29.88,NW,311,4.0,13.0,79,0.00,,,0.00,VWS V14.00,2013-01-05 12:51:00,
2013-01-05 07:56:00,32.9,25.2,29.89,West,259,2.0,13.0,73,0.00,,,0.00,VWS V14.00,2013-01-05 12:56:00,
2013-01-05 08:01:00,33.8,24.7,29.89,NW,313,5.0,8.0,69,0.00,,SCT045,0.00,VWS V14.00,2013-01-05 13:01:00,
2013-01-05 08:06:00,34.1,24.0,29.89,SSW,210,7.0,8.0,66,0.00,,SCT045,0.00,VWS V14.00,2013-01-05 13:06:00,
2013-01-05 08:11:00,34.4,22.7,29.90,SW,234,2.0,16.0,62,0.00,,SCT045,0.00,VWS V14.00,2013-01-05 13:11:00,
2013-01-05 08:16:00,34.4,22.0,29.90,WSW,258,9.0,16.0,60,0.00,,SCT045,0.00,VWS V14.00,2013-01-05 13:16:00,
2013-01-05 08:21:00,34.4,21.2,29.91,WSW,245,11.0,16.0,58,0.00,,SCT045,0.00,VWS V14.00,2013-01-05 13:21:00,
2013-01-05 08:26:00,34.3,20.7,29.91,SW,227,4.0,16.0,57,0.00,,SCT045,0.00,VWS V14.00,2013-01-05 13:26:00,
2013-01-05 08:31:00,34.2,20.1,29.92,SSW,194,6.0,8.0,56,0.00,,SCT045,0.00,VWS V14.00,2013-01-05 13:31:00,
2013-01-05 08:36:00,34.4,19.9,29.92,West,277,3.0,15.0,55,0.00,,SCT045,0.00,VWS V14.00,2013-01-05 13:36:00,
2013-01-05 08:41:00,34.4,19.9,29.92,WNW,285,8.0,19.0,55,0.00,,SCT045,0.00,VWS V14.00,2013-01-05 13:41:00,
2013-01-05 08:46:00,34.4,19.5,29.93,WSW,254,4.0,19.0,54,0.00,,SCT045,0.00,VWS V14.00,2013-01-05 13:46:00,
2013-01-05 08:51:00,34.4,18.6,29.93,WNW,294,7.0,19.0,52,0.00,,SCT045,0.00,VWS V14.00,2013-01-05 13:51:00,
2013-01-05 08:56:00,34.4,17.7,29.93,WNW,284,6.0,19.0,50,0.00,,SCT045,0.00,VWS V14.00,2013-01-05 13:56:00,
2013-01-05 09:01:00,34.4,18.2,29.94,West,280,5.0,17.0,51,0.00,,BKN050,0.00,VWS V14.00,2013-01-05 14:01:00,
2013-01-05 09:06:00,34.3,18.1,29.94,West,278,4.0,17.0,51,0.00,,BKN050,0.00,VWS V14.00,2013-01-05 14:06:00,
2013-01-05 09:11:00,34.3,18.1,29.95,SW,234,6.0,18.0,51,0.00,,BKN050,0.00,VWS V14.00,2013-01-05 14:11:00,
2013-01-05 09:16:00,34.3,18.1,29.95,West,268,9.0,22.0,51,0.00,,BKN050,0.00,VWS V14.00,2013-01-05 14:16:00,
2013-01-05 09:21:00,34.3,18.1,29.96,SSW,192,7.0,22.0,51,0.00,,BKN050,0.00,VWS V14.00,2013-01-05 14:21:00,
2013-01-05 09:26:00,34.3,18.1,29.96,West,271,8.0,22.0,51,0.00,,BKN050,0.00,VWS V14.00,2013-01-05 14:26:00,
2013-01-05 09:31:00,34.4,18.2,29.96,West,276,8.0,19.0,51,0.00,,BKN050,0.00,VWS V14.00,2013-01-05 14:31:00,
2013-01-05 09:36:00,34.4,17.7,29.96,WNW,286,8.0,20.0,50,0.00,,BKN050,0.00,VWS V14.00,2013-01-05 14:36:00,
2013-01-05 09:41:00,34.5,17.3,29.97,West,270,4.0,22.0,49,0.00,,BKN050,0.00,VWS V14.00,2013-01-05 14:41:00,
2013-01-05 09:46:00,34.8,17.6,29.97,SW,233,5.0,22.0,49,0.00,,BKN050,0.00,VWS V14.00,2013-01-05 14:46:00,
2013-01-05 09:51:00,34.7,17.0,29.98,West,259,10.0,22.0,48,0.00,,BKN050,0.00,VWS V14.00,2013-01-05 14:51:00,
2013-01-05 09:56:00,34.7,17.0,29.99,NNW,333,1.0,22.0,48,0.00,,BKN050,0.00,VWS V14.00,2013-01-05 14:56:00,
2013-01-05 10:01:00,34.8,16.6,29.99,NW,308,14.0,16.0,47,0.00,,BKN043,0.00,VWS V14.00,2013-01-05 15:01:00,
2013-01-05 10:06:00,34.7,17.0,29.99,North,355,4.0,16.0,48,0.00,,BKN043,0.00,VWS V14.00,2013-01-05 15:06:00,
2013-01-05 10:11:00,34.8,17.1,30.00,WSW,247,5.0,16.0,48,0.00,,BKN043,0.00,VWS V14.00,2013-01-05 15:11:00,
2013-01-05 10:16:00,34.8,17.1,30.00,North,350,5.0,23.0,48,0.00,,BKN043,0.00,VWS V14.00,2013-01-05 15:16:00,
2013-01-05 10:21:00,34.6,16.9,30.00,West,261,7.0,23.0,48,0.00,,BKN043,0.00,VWS V14.00,2013-01-05 15:21:00,
2013-01-05 10:26:00,34.7,17.5,30.00,West,278,8.0,23.0,49,0.00,,BKN043,0.00,VWS V14.00,2013-01-05 15:26:00,
2013-01-05 10:31:00,34.8,17.1,30.00,NNE,12,4.0,13.0,48,0.00,,BKN043,0.00,VWS V14.00,2013-01-05 15:31:00,
2013-01-05 10:36:00,34.9,17.2,30.00,NW,318,6.0,16.0,48,0.00,,BKN043,0.00,VWS V14.00,2013-01-05 15:36:00,
2013-01-05 10:41:00,35.0,17.3,30.01,NNE,28,2.0,16.0,48,0.00,,BKN043,0.00,VWS V14.00,2013-01-05 15:41:00,
2013-01-05 10:46:00,35.1,17.4,30.01,SW,228,3.0,16.0,48,0.00,,BKN043,0.00,VWS V14.00,2013-01-05 15:46:00,
2013-01-05 10:51:00,35.3,17.1,30.01,SW,219,3.0,21.0,47,0.00,,BKN043,0.00,VWS V14.00,2013-01-05 15:51:00,
2013-01-05 10:56:00,35.2,17.5,30.01,NNE,19,3.0,21.0,48,0.00,,BKN043,0.00,VWS V14.00,2013-01-05 15:56:00,
2013-01-05 11:01:00,35.2,17.5,30.01,SSW,192,7.0,13.0,48,0.00,,FEW048,0.00,VWS V14.00,2013-01-05 16:01:00,
2013-01-05 11:06:00,35.3,18.1,30.01,South,169,11.0,17.0,49,0.00,,FEW048,0.00,VWS V14.00,2013-01-05 16:06:00,
2013-01-05 11:11:00,35.4,18.1,30.01,West,265,3.0,17.0,49,0.00,,FEW048,0.00,VWS V14.00,2013-01-05 16:11:00,
2013-01-05 11:16:00,35.6,18.3,30.01,South,173,3.0,17.0,49,0.00,,FEW048,0.00,VWS V14.00,2013-01-05 16:16:00,
2013-01-05 11:21:00,35.5,17.8,30.01,West,271,4.0,17.0,48,0.00,,FEW048,0.00,VWS V14.00,2013-01-05 16:21:00,
2013-01-05 11:26:00,35.6,17.4,30.02,West,281,15.0,20.0,47,0.00,,FEW048,0.00,VWS V14.00,2013-01-05 16:26:00,
2013-01-05 11:31:00,35.2,17.0,30.02,SW,234,3.0,15.0,47,0.00,,FEW048,0.00,VWS V14.00,2013-01-05 16:31:00,
2013-01-05 11:36:00,35.3,16.6,30.03,SSW,202,4.0,15.0,46,0.00,,FEW048,0.00,VWS V14.00,2013-01-05 16:36:00,
2013-01-05 11:41:00,35.0,15.8,30.03,WNW,299,7.0,20.0,45,0.00,,FEW048,0.00,VWS V14.00,2013-01-05 16:41:00,
2013-01-05 11:46:00,35.0,15.8,30.03,SW,234,3.0,20.0,45,0.00,,FEW048,0.00,VWS V14.00,2013-01-05 16:46:00,
2013-01-05 11:51:00,34.6,15.5,30.03,WNW,287,5.0,20.0,45,0.00,,FEW048,0.00,VWS V14.00,2013-01-05 16:51:00,
2013-01-05 11:56:00,34.7,15.0,30.04,WSW,257,4.0,20.0,44,0.00,,FEW048,0.00,VWS V14.00,2013-01-05 16:56:00,
2013-01-05 12:01:00,34.9,15.2,30.04,North,350,4.0,12.0,44,0.00,,FEW045,0.00,VWS V14.00,2013-01-05 17:01:00,
2013-01-05 12:06:00,34.7,14.5,30.04,West,277,1.0,12.0,43,0.00,,FEW045,0.00,VWS V14.00,2013-01-05 17:06:00,
2013-01-05 12:11:00,34.4,14.2,30.04,NNW,342,6.0,17.0,43,0.00,,FEW045,0.00,VWS V14.00,2013-01-05 17:11:00,
2013-01-05 12:16:00,34.1,13.4,30.04,SSW,209,6.0,21.0,42,0.00,,FEW045,0.00,VWS V14.00,2013-01-05 17:16:00,
2013-01-05 12:21:00,34.0,13.9,30.04,WNW,288,12.0,21.0,43,0.00,,FEW045,0.00,VWS V14.00,2013-01-05 17:21:00,
2013-01-05 12:26:00,34.3,14.1,30.05,WNW,293,7.0,21.0,43,0.00,,FEW045,0.00,VWS V14.00,2013-01-05 17:26:00,
2013-01-05 12:31:00,33.9,13.2,30.05,NW,315,2.0,16.0,42,0.00,,FEW045,0.00,VWS V14.00,2013-01-05 17:31:00,
2013-01-05 12:36:00,34.1,13.4,30.05,WSW,255,13.0,16.0,42,0.00,,FEW045,0.00,VWS V14.00,2013-01-05 17:36:00,
2013-01-05 12:41:00,34.0,13.3,30.05,WSW,255,6.0,16.0,42,0.00,,FEW045,0.00,VWS V14.00,2013-01-05 17:41:00,
2013-01-05 12:51:00,33.8,13.1,30.07,WNW,300,5.0,16.0,42,0.00,,FEW045,0.00,VWS V14.00,2013-01-05 17:51:00,
2013-01-05 12:56:00,33.9,13.2,30.07,WSW,244,9.0,16.0,42,0.00,,FEW045,0.00,VWS V14.00,2013-01-05 17:56:00,
2013-01-05 13:06:00,33.7,13.1,30.07,SSW,202,7.0,15.0,42,0.00,,FEW045,0.00,VWS V14.00,2013-01-05 18:06:00,
2013-01-05 13:11:00,33.7,13.6,30.07,West,271,8.0,15.0,43,0.00,,FEW045,0.00,VWS V14.00,2013-01-05 18:11:00,
2013-01-05 13:16:00,33.8,13.7,30.08,WSW,243,7.0,15.0,43,0.00,,FEW045,0.00,VWS V14.00,2013-01-05 18:16:00,
2013-01-05 13:21:00,33.8,13.7,30.08,NNE,19,2.0,16.0,43,0.00,,FEW045,0.00,VWS V14.00,2013-01-05 18:21:00,
2013-01-05 13:26:00,33.7,13.1,30.08,SW,233,3.0,16.0,42,0.00,,FEW045,0.00,VWS V14.00,2013-01-05 18:26:00,
2013-01-05 13:31:00,33.5,12.9,30.07,SW,230,4.0,14.0,42,0.00,,FEW045,0.00,VWS V14.00,2013-01-05 18:31:00,
2013-01-05 13:35:00,33.4,12.8,30.08,West,277,6.0,15.0,42,0.00,,FEW045,0.00,VWS V14.00,2013-01-05 18:35:00,
2013-01-05 13:40:00,33.5,12.9,30.08,WNW,298,0.0,15.0,42,0.00,,FEW045,0.00,VWS V14.00,2013-01-05 18:40:00,
2013-01-05 13:45:00,33.3,12.7,30.08,ENE,75,4.0,15.0,42,0.00,,FEW045,0.00,VWS V14.00,2013-01-05 18:45:00,
2013-01-05 13:50:00,33.2,12.6,30.08,NW,308,2.0,15.0,42,0.00,,FEW045,0.00,VWS V14.00,2013-01-05 18:50:00,
2013-01-05 13:55:00,33.1,13.1,30.09,NW,307,2.0,15.0,43,0.00,,FEW045,0.00,VWS V14.00,2013-01-05 18:55:00,
2013-01-05 14:00:00,33.2,13.1,30.09,North,9,1.0,14.0,43,0.00,,CLR,0.00,VWS V14.00,2013-01-05 19:00:00,
2013-01-05 14:05:00,33.1,13.1,30.09,ENE,66,2.0,14.0,43,0.00,,CLR,0.00,VWS V14.00,2013-01-05 19:05:00,
2013-01-05 14:10:00,33.0,13.0,30.09,NNE,29,0.0,14.0,43,0.00,,CLR,0.00,VWS V14.00,2013-01-05 19:10:00,
2013-01-05 14:15:00,33.1,13.1,30.10,WSW,242,12.0,14.0,43,0.01,,CLR,0.01,VWS V14.00,2013-01-05 19:15:00,
2013-01-05 14:20:00,33.2,13.1,30.10,WNW,303,2.0,14.0,43,0.01,,CLR,0.01,VWS V14.00,2013-01-05 19:20:00,
2013-01-05 14:25:00,33.2,13.1,30.10,WSW,256,4.0,14.0,43,0.01,,CLR,0.01,VWS V14.00,2013-01-05 19:25:00,
2013-01-05 14:30:00,32.9,12.9,30.10,NW,314,3.0,8.0,43,0.01,,CLR,0.01,VWS V14.00,2013-01-05 19:30:00,
2013-01-05 14:35:00,33.1,13.1,30.10,West,271,1.0,8.0,43,0.01,,CLR,0.01,VWS V14.00,2013-01-05 19:35:00,
2013-01-05 14:40:00,32.8,12.8,30.10,WNW,291,5.0,8.0,43,0.01,,CLR,0.01,VWS V14.00,2013-01-05 19:40:00,
2013-01-05 14:45:00,32.7,12.7,30.11,NW,309,5.0,8.0,43,0.01,,CLR,0.01,VWS V14.00,2013-01-05 19:45:00,
2013-01-05 14:50:00,32.6,12.6,30.11,West,280,5.0,9.0,43,0.01,,CLR,0.01,VWS V14.00,2013-01-05 19:50:00,
2013-01-05 14:55:00,32.4,12.4,30.11,NNW,344,4.0,9.0,43,0.01,,CLR,0.01,VWS V14.00,2013-01-05 19:55:00,
2013-01-05 15:00:00,32.1,12.7,30.12,SW,232,3.0,7.0,44,0.01,,CLR,0.01,VWS V14.00,2013-01-05 20:00:00,
2013-01-05 15:05:00,32.0,12.6,30.11,NNW,348,5.0,8.0,44,0.01,,CLR,0.01,VWS V14.00,2013-01-05 20:05:00,
2013-01-05 15:10:00,31.8,12.4,30.11,SW,234,2.0,10.0,44,0.01,,CLR,0.01,VWS V14.00,2013-01-05 20:10:00,
2013-01-05 15:15:00,31.5,12.1,30.11,West,277,6.0,10.0,44,0.01,,CLR,0.01,VWS V14.00,2013-01-05 20:15:00,
2013-01-05 15:20:00,31.5,12.6,30.11,NNE,15,4.0,10.0,45,0.01,,CLR,0.01,VWS V14.00,2013-01-05 20:20:00,
2013-01-05 15:25:00,31.3,12.4,30.12,WSW,240,0.0,10.0,45,0.01,,CLR,0.01,VWS V14.00,2013-01-05 20:25:00,
2013-01-05 15:30:00,31.2,12.4,30.13,WSW,254,5.0,7.0,45,0.00,,CLR,0.01,VWS V14.00,2013-01-05 20:30:00,
2013-01-05 15:35:00,31.1,12.2,30.14,NNE,30,2.0,7.0,45,0.00,,CLR,0.01,VWS V14.00,2013-01-05 20:35:00,
2013-01-05 15:40:00,30.9,12.1,30.14,NNW,333,1.0,7.0,45,0.00,,CLR,0.01,VWS V14.00,2013-01-05 20:40:00,
2013-01-05 15:45:00,30.6,12.3,30.14,WNW,294,3.0,7.0,46,0.00,,CLR,0.01,VWS V14.00,2013-01-05 20:45:00,
2013-01-05 15:50:00,30.5,12.2,30.14,NW,323,1.0,7.0,46,0.00,,CLR,0.01,VWS V14.00,2013-01-05 20:50:00,
2013-01-05 15:55:00,30.2,12.4,30.14,NW,324,0.0,7.0,47,0.00,,CLR,0.01,VWS V14.00,2013-01-05 20:55:00,
2013-01-05 16:00:00,29.9,12.1,30.14,SW,215,2.0,6.0,47,0.00,,CLR,0.01,VWS V14.00,2013-01-05 21:00:00,
2013-01-05 16:05:00,29.7,11.9,30.14,North,360,0.0,6.0,47,0.00,,CLR,0.01,VWS V14.00,2013-01-05 21:05:00,
2013-01-05 16:10:00,29.5,12.2,30.13,SW,215,4.0,6.0,48,0.00,,CLR,0.01,VWS V14.00,2013-01-05 21:10:00,
2013-01-05 16:15:00,29.3,12.5,30.14,ENE,72,2.0,6.0,49,0.00,,CLR,0.01,VWS V14.00,2013-01-05 21:15:00,
2013-01-05 16:20:00,29.1,12.3,30.13,NW,313,4.0,8.0,49,0.00,,CLR,0.01,VWS V14.00,2013-01-05 21:20:00,
2013-01-05 16:25:00,28.9,12.1,30.14,NE,44,0.0,8.0,49,0.00,,CLR,0.01,VWS V14.00,2013-01-05 21:25:00,
2013-01-05 16:30:00,28.7,12.0,30.15,NE,55,2.0,5.0,49,0.00,,CLR,0.01,VWS V14.00,2013-01-05 21:30:00,
2013-01-05 16:35:00,28.5,12.2,30.15,ENE,77,0.0,5.0,50,0.00,,CLR,0.01,VWS V14.00,2013-01-05 21:35:00,
2013-01-05 16:40:00,28.4,12.6,30.16,ENE,77,0.0,5.0,51,0.00,,CLR,0.01,VWS V14.00,2013-01-05 21:40:00,
2013-01-05 16:45:00,28.3,13.8,30.16,West,271,0.0,5.0,54,0.00,,CLR,0.01,VWS V14.00,2013-01-05 21:45:00,
2013-01-05 16:50:00,28.1,13.6,30.15,NNW,338,2.0,5.0,54,0.00,,CLR,0.01,VWS V14.00,2013-01-05 21:50:00,
2013-01-05 16:55:00,27.8,13.3,30.15,ENE,70,4.0,5.0,54,0.00,,CLR,0.01,VWS V14.00,2013-01-05 21:55:00,
2013-01-05 17:00:00,27.5,13.5,30.16,ENE,70,3.0,5.0,55,0.00,,FEW200,0.01,VWS V14.00,2013-01-05 22:00:00,
2013-01-05 17:05:00,27.2,13.2,30.16,East,90,0.0,5.0,55,0.00,,FEW200,0.01,VWS V14.00,2013-01-05 22:05:00,
2013-01-05 17:10:00,27.3,12.4,30.17,West,273,1.0,6.0,53,0.00,,FEW200,0.01,VWS V14.00,2013-01-05 22:10:00,
2013-01-05 17:15:00,27.4,12.5,30.17,WSW,254,6.0,8.0,53,0.00,,FEW200,0.01,VWS V14.00,2013-01-05 22:15:00,
2013-01-05 17:20:00,27.4,12.5,30.16,NNW,334,4.0,8.0,53,0.00,,FEW200,0.01,VWS V14.00,2013-01-05 22:20:00,
2013-01-05 17:25:00,27.3,12.9,30.17,NNE,17,2.0,8.0,54,0.00,,FEW200,0.01,VWS V14.00,2013-01-05 22:25:00,
2013-01-05 17:30:00,27.1,12.2,30.17,SSE,150,0.0,2.0,53,0.00,,FEW200,0.01,VWS V14.00,2013-01-05 22:30:00,
2013-01-05 17:35:00,26.9,12.9,30.17,NE,50,0.0,3.0,55,0.00,,FEW200,0.01,VWS V14.00,2013-01-05 22:35:00,
2013-01-05 17:40:00,26.8,12.8,30.17,North,5,1.0,3.0,55,0.00,,FEW200,0.01,VWS V14.00,2013-01-05 22:40:00,
2013-01-05 17:45:00,26.8,13.2,30.17,North,5,0.0,3.0,56,0.00,,FEW200,0.01,VWS V14.00,2013-01-05 22:45:00,
2013-01-05 17:50:00,26.6,13.0,30.18,ENE,61,0.0,3.0,56,0.00,,FEW200,0.01,VWS V14.00,2013-01-05 22:50:00,
2013-01-05 17:55:00,26.5,13.3,30.18,ENE,61,1.0,3.0,57,0.00,,FEW200,0.01,VWS V14.00,2013-01-05 22:55:00,
2013-01-05 18:00:00,26.3,13.6,30.18,ENE,61,0.0,3.0,58,0.00,,FEW200,0.01,VWS V14.00,2013-01-05 23:00:00,
2013-01-05 18:05:00,26.1,13.0,30.18,ENE,61,0.0,3.0,57,0.00,,FEW200,0.01,VWS V14.00,2013-01-05 23:05:00,
2013-01-05 18:10:00,25.9,12.8,30.19,ENE,61,0.0,3.0,57,0.00,,FEW200,0.01,VWS V14.00,2013-01-05 23:10:00,
2013-01-05 18:15:00,25.8,13.5,30.19,ENE,61,0.0,3.0,59,0.00,,FEW200,0.01,VWS V14.00,2013-01-05 23:15:00,
2013-01-05 18:20:00,25.6,13.3,30.20,ENE,61,0.0,3.0,59,0.00,,FEW200,0.01,VWS V14.00,2013-01-05 23:20:00,
2013-01-05 18:25:00,25.3,12.6,30.20,ENE,61,0.0,3.0,58,0.00,,FEW200,0.01,VWS V14.00,2013-01-05 23:25:00,
2013-01-05 18:30:00,25.2,12.5,30.20,ENE,61,0.0,0.0,58,0.00,,FEW200,0.01,VWS V14.00,2013-01-05 23:30:00,
2013-01-05 18:35:00,25.1,13.2,30.20,ENE,61,0.0,1.0,60,0.00,,FEW200,0.01,VWS V14.00,2013-01-05 23:35:00,
2013-01-05 18:40:00,24.8,12.9,30.21,ENE,61,0.0,2.0,60,0.00,,FEW200,0.01,VWS V14.00,2013-01-05 23:40:00,
2013-01-05 18:45:00,24.5,12.6,30.21,ENE,61,0.0,2.0,60,0.00,,FEW200,0.01,VWS V14.00,2013-01-05 23:45:00,
2013-01-05 18:50:00,24.5,14.4,30.21,ENE,61,0.0,2.0,65,0.00,,FEW200,0.01,VWS V14.00,2013-01-05 23:50:00,
2013-01-05 18:55:00,24.3,14.2,30.21,ENE,61,0.0,2.0,65,0.00,,FEW200,0.01,VWS V14.00,2013-01-05 23:55:00,
2013-01-05 19:00:00,24.0,14.3,30.21,ENE,61,0.0,2.0,66,0.00,,FEW200,0.01,VWS V14.00,2013-01-06 00:00:00,
2013-01-05 19:05:00,23.9,14.2,30.22,ENE,61,0.0,2.0,66,0.00,,FEW200,0.01,VWS V14.00,2013-01-06 00:05:00,
2013-01-05 19:10:00,23.7,13.7,30.22,ENE,61,2.0,2.0,65,0.00,,FEW200,0.01,VWS V14.00,2013-01-06 00:10:00,
2013-01-05 19:15:00,23.6,14.3,30.22,ENE,61,0.0,2.0,67,0.00,,FEW200,0.01,VWS V14.00,2013-01-06 00:15:00,
2013-01-05 19:20:00,23.4,14.8,30.22,ENE,61,0.0,2.0,69,0.00,,FEW200,0.01,VWS V14.00,2013-01-06 00:20:00,
2013-01-05 19:25:00,23.3,14.6,30.22,ENE,61,0.0,2.0,69,0.00,,FEW200,0.01,VWS V14.00,2013-01-06 00:25:00,
2013-01-05 19:30:00,23.1,14.5,30.22,ENE,61,0.0,0.0,69,0.00,,FEW200,0.01,VWS V14.00,2013-01-06 00:30:00,
2013-01-05 19:35:00,22.9,14.9,30.22,ENE,61,0.0,1.0,71,0.00,,FEW200,0.01,VWS V14.00,2013-01-06 00:35:00,
2013-01-05 19:40:00,22.6,14.6,30.22,ENE,61,0.0,1.0,71,0.00,,FEW200,0.01,VWS V14.00,2013-01-06 00:40:00,
2013-01-05 19:45:00,22.4,14.8,30.22,ENE,61,0.0,1.0,72,0.00,,FEW200,0.01,VWS V14.00,2013-01-06 00:45:00,
2013-01-05 19:50:00,22.1,14.5,30.22,ENE,61,0.0,1.0,72,0.00,,FEW200,0.01,VWS V14.00,2013-01-06 00:50:00,
2013-01-05 19:55:00,21.8,14.2,30.23,ENE,61,0.0,1.0,72,0.00,,FEW200,0.01,VWS V14.00,2013-01-06 00:55:00,
2013-01-05 20:00:00,21.5,14.5,30.22,ENE,61,2.0,2.0,74,0.00,,FEW200,0.01,VWS V14.00,2013-01-06 01:00:00,
2013-01-05 20:05:00,21.2,14.8,30.22,ENE,61,0.0,2.0,76,0.00,,FEW200,0.01,VWS V14.00,2013-01-06 01:05:00,
2013-01-05 20:10:00,21.1,15.0,30.22,ENE,61,0.0,2.0,77,0.00,,FEW200,0.01,VWS V14.00,2013-01-06 01:10:00,
2013-01-05 20:15:00,21.0,14.9,30.23,ENE,61,0.0,2.0,77,0.00,,FEW200,0.01,VWS V14.00,2013-01-06 01:15:00,
2013-01-05 20:20:00,20.7,14.4,30.22,ENE,61,0.0,2.0,76,0.00,,FEW200,0.01,VWS V14.00,2013-01-06 01:20:00,
2013-01-05 20:25:00,20.6,14.2,30.22,ENE,61,1.0,2.0,76,0.00,,FEW200,0.01,VWS V14.00,2013-01-06 01:25:00,
2013-01-05 20:30:00,20.6,14.2,30.21,ENE,61,0.0,1.0,76,0.00,,FEW200,0.01,VWS V14.00,2013-01-06 01:30:00,
2013-01-05 20:35:00,20.4,14.1,30.22,ENE,61,0.0,1.0,76,0.00,,FEW200,0.01,VWS V14.00,2013-01-06 01:35:00,
2013-01-05 20:40:00,20.2,13.9,30.23,ENE,61,0.0,1.0,76,0.00,,FEW200,0.01,VWS V14.00,2013-01-06 01:40:00,
2013-01-05 20:45:00,20.0,13.7,30.22,ENE,61,0.0,1.0,76,0.00,,FEW200,0.01,VWS V14.00,2013-01-06 01:45:00,
2013-01-05 20:50:00,19.7,13.4,30.22,ENE,61,1.0,2.0,76,0.00,,FEW200,0.01,VWS V14.00,2013-01-06 01:50:00,
2013-01-05 20:55:00,19.5,13.5,30.22,ENE,61,0.0,2.0,77,0.00,,FEW200,0.01,VWS V14.00,2013-01-06 01:55:00,
2013-01-05 21:00:00,19.3,13.0,30.23,ENE,61,0.0,1.0,76,0.00,,BKN200,0.01,VWS V14.00,2013-01-06 02:00:00,
2013-01-05 21:05:00,18.9,12.6,30.23,ENE,61,0.0,1.0,76,0.00,,BKN200,0.01,VWS V14.00,2013-01-06 02:05:00,
2013-01-05 21:10:00,18.8,13.1,30.23,ENE,61,1.0,1.0,78,0.00,,BKN200,0.01,VWS V14.00,2013-01-06 02:10:00,
2013-01-05 21:15:00,18.6,13.2,30.23,ENE,61,0.0,2.0,79,0.00,,BKN200,0.01,VWS V14.00,2013-01-06 02:15:00,
2013-01-05 21:20:00,18.3,12.6,30.23,ENE,61,0.0,2.0,78,0.00,,BKN200,0.01,VWS V14.00,2013-01-06 02:20:00,
2013-01-05 21:25:00,18.1,12.7,30.23,ENE,61,1.0,2.0,79,0.00,,BKN200,0.01,VWS V14.00,2013-01-06 02:25:00,
2013-01-05 21:30:00,18.0,12.9,30.22,ENE,61,0.0,0.0,80,0.00,,BKN200,0.01,VWS V14.00,2013-01-06 02:30:00,
2013-01-05 21:35:00,17.8,12.4,30.22,ENE,61,0.0,0.0,79,0.00,,BKN200,0.01,VWS V14.00,2013-01-06 02:35:00,
2013-01-05 21:40:00,17.6,12.5,30.22,ENE,61,0.0,1.0,80,0.00,,BKN200,0.01,VWS V14.00,2013-01-06 02:40:00,
2013-01-05 21:45:00,17.3,12.2,30.22,ENE,61,0.0,1.0,80,0.00,,BKN200,0.01,VWS V14.00,2013-01-06 02:45:00,
2013-01-05 21:50:00,17.2,12.1,30.21,ENE,61,1.0,2.0,80,0.00,,BKN200,0.01,VWS V14.00,2013-01-06 02:50:00,
2013-01-05 21:55:00,17.1,12.0,30.22,ENE,61,0.0,2.0,80,0.00,,BKN200,0.01,VWS V14.00,2013-01-06 02:55:00,
2013-01-05 22:00:00,17.0,11.9,30.22,ENE,61,0.0,0.0,80,0.00,,BKN200,0.01,VWS V14.00,2013-01-06 03:00:00,
2013-01-05 22:05:00,17.0,12.2,30.22,ENE,61,0.0,1.0,81,0.00,,BKN200,0.01,VWS V14.00,2013-01-06 03:05:00,
2013-01-05 22:10:00,16.8,11.7,30.22,ENE,61,0.0,1.0,80,0.00,,BKN200,0.01,VWS V14.00,2013-01-06 03:10:00,
2013-01-05 22:15:00,16.7,11.6,30.22,ENE,61,0.0,1.0,80,0.00,,BKN200,0.01,VWS V14.00,2013-01-06 03:15:00,
2013-01-05 22:20:00,16.6,11.5,30.22,ENE,61,0.0,1.0,80,0.00,,BKN200,0.01,VWS V14.00,2013-01-06 03:20:00,
2013-01-05 22:25:00,16.4,11.6,30.22,ENE,61,0.0,1.0,81,0.00,,BKN200,0.01,VWS V14.00,2013-01-06 03:25:00,
2013-01-05 22:30:00,16.2,11.4,30.22,ENE,61,0.0,0.0,81,0.00,,BKN200,0.01,VWS V14.00,2013-01-06 03:30:00,
2013-01-05 22:35:00,16.0,11.2,30.21,ENE,61,0.0,0.0,81,0.00,,BKN200,0.01,VWS V14.00,2013-01-06 03:35:00,
2013-01-05 22:40:00,15.8,11.3,30.21,ENE,61,0.0,1.0,82,0.00,,BKN200,0.01,VWS V14.00,2013-01-06 03:40:00,
2013-01-05 22:45:00,15.7,11.2,30.22,ENE,61,0.0,1.0,82,0.00,,BKN200,0.01,VWS V14.00,2013-01-06 03:45:00,
2013-01-05 22:50:00,15.5,11.0,30.21,ENE,61,0.0,1.0,82,0.00,,BKN200,0.01,VWS V14.00,2013-01-06 03:50:00,
2013-01-05 22:55:00,15.5,11.3,30.22,ENE,61,0.0,1.0,83,0.00,,BKN200,0.01,VWS V14.00,2013-01-06 03:55:00,
2013-01-05 23:00:00,15.4,11.2,30.22,ENE,61,0.0,0.0,83,0.00,,BKN200,0.01,VWS V14.00,2013-01-06 04:00:00,
2013-01-05 23:05:00,15.3,11.1,30.21,ENE,61,1.0,1.0,83,0.00,,BKN200,0.01,VWS V14.00,2013-01-06 04:05:00,
2013-01-05 23:10:00,15.3,11.1,30.21,ENE,61,0.0,1.0,83,0.00,,BKN200,0.01,VWS V14.00,2013-01-06 04:10:00,
2013-01-05 23:15:00,15.2,11.0,30.21,ENE,61,0.0,1.0,83,0.00,,BKN200,0.01,VWS V14.00,2013-01-06 04:15:00,
2013-01-05 23:20:00,15.1,10.9,30.22,ENE,61,1.0,1.0,83,0.00,,BKN200,0.01,VWS V14.00,2013-01-06 04:20:00,
2013-01-05 23:25:00,15.1,13.2,30.22,ENE,61,0.0,1.0,92,0.00,,BKN200,0.01,VWS V14.00,2013-01-06 04:25:00,
2013-01-05 23:30:00,15.0,11.1,30.22,ENE,61,0.0,0.0,84,0.00,,BKN200,0.01,VWS V14.00,2013-01-06 04:30:00,
2013-01-05 23:35:00,14.9,10.9,30.21,ENE,61,0.0,0.0,84,0.00,,BKN200,0.01,VWS V14.00,2013-01-06 04:35:00,
2013-01-05 23:40:00,14.9,10.9,30.21,ENE,61,0.0,0.0,84,0.00,,BKN200,0.01,VWS V14.00,2013-01-06 04:40:00,
2013-01-05 23:45:00,14.8,10.9,30.21,ENE,61,0.0,1.0,84,0.00,,BKN200,0.01,VWS V14.00,2013-01-06 04:45:00,
2013-01-05 23:50:00,14.8,10.9,30.20,ENE,61,0.0,1.0,84,0.00,,BKN200,0.01,VWS V14.00,2013-01-06 04:50:00,
2013-01-05 23:55:00,14.9,11.2,30.19,ENE,61,0.0,1.0,85,0.00,,BKN200,0.01,VWS V14.00,2013-01-06 04:55:00,